Regional Weather Roundup
Issued by NWS New Orleans/Baton Rouge, LA

Home | Current Version | Previous Version | Graphics & Text | Print | Product List | Glossary On
Versions: 1 2 3 4 5 6 7 8 9 10 11 12 13 14 15 16 17 18 19 20 21 22 23 24 25 26 27 28 29 30 31 32 33 34 35 36 37 38 39 40 41 42 43 44 45 46 47 48 49 50
704
ASUS44 KLIX 230205
RWRLIX
NEW ORLEANS REGIONAL WEATHER ROUNDUP
NATIONAL WEATHER SERVICE NEW ORLEANS LA
900 PM CDT TUE APR 22 2014

NOTE: "FAIR" INDICATES FEW OR NO CLOUDS BELOW 12,000 FEET WITH NO
      SIGNIFICANT WEATHER AND/OR OBSTRUCTIONS TO VISIBILITY.
      SKY/WX - SKY CONDITION AND SIGNIFICANT WEATHER.
      TMP - AIR TEMPERATURE.     DP    - DEWPOINT TEMPERATURE.
      RH  - RELATIVE HUMIDITY.   PRES  - PRESSURE.
      HI  - HEAT INDEX.          WCI   - WIND CHILL INDEX.

*  THESE STATIONS ARE NOT NWS OR FAA STATIONS AND ARE NOT UNDER
   NWS QUALITY CONTROL.

LAZ038-040-048-061>063-065>067-069-230300-
SOUTHEAST LOUISIANA

CITY           SKY/WX    TMP DP  RH WIND       PRES   REMARKS
N.O. AUDUBON     N/A     70  65  83 MISG        N/A
N.O. INTL ARPT PTCLDY    71  63  75 NW5       29.91R
N.O. LAKEFRONT CLEAR     70  66  87 NW5       29.92R
N.O. DOWNTOWN*   N/A     73  61  64 N3        29.92R
SLIDELL        CLEAR     67  63  87 CALM      29.91R
BATON ROUGE    CLEAR     69  61  75 CALM      29.93R
BOOTHVILLE     CLEAR     70  67  90 W5        29.92R
BELLE CHASSE   PTCLDY    66  62  87 CALM      29.91R
BOGALUSA*        N/A     66  62  88 CALM      29.93R
GALLIANO*      CLEAR     72  67  85 CALM      29.92R
NEW ROADS*       N/A     67  61  81 CALM      29.93R
GONZALES*        N/A     66  64  93 CALM      29.92R
HAMMOND*       CLEAR     66  61  82 CALM      29.94R
HOUMA*           N/A     70  65  84 SW3       29.92R
PORT FOURCHON* CLEAR     72  68  88 W9        29.94R

$$

MSZ070-080>082-230300-
SOUTHERN MISSISSIPPI

CITY           SKY/WX    TMP DP  RH WIND       PRES   REMARKS
MCCOMB         CLEAR     65  61  87 CALM      29.93R
GULFPORT       MOCLDY    71  66  84 CALM      29.90R
BILOXI         MOCLDY    70  67  92 N1        29.90R
PASCAGOULA     CLOUDY    69  66  90 CALM      29.90R
STENNIS ARPT*  PTCLDY    66  61  82 N5        29.91R

$$

COASTAL OBSERVATIONS
LAKE AND NEARSHORE STATIONS

STATION/POSITION TIME  TEMP    WIND        PRES    WAVE
                       AIR SEA DIR/SP/G            HT/PER
                 (UTC) (F)     (DEG/KT/KT) (MB)    (FT/S)
PASCAGOULA       0200   70     230/  6/  7 1011.8
WAVELAND YACHT   0200   71 72  330/  4/  5 1011.8
GRAND ISLE       0200   72 72  260/  8/ 10 1013.6
SOUTHWEST PASS   0200   68 60  280/ 14/ 17 1013.5
NEW CANAL        0200   72 69  340/  3/  6 1013.3
SHELL BEACH      0200   71 67  250/  6/  8 1012.6

OFFSHORE STATIONS

STATION/POSITION TIME  TEMP    WIND        PRES    WAVE
                       AIR SEA DIR/SP/G            HT/PER
                 (UTC) (F)     (DEG/KT/KT) (MB)    (FT/S)
64 S DAUPHIN ISL 0051   70 69  270/ 12/ 14 1013.0

$$




USA.gov is the U.S. government's official web portal to all federal, state and local government web resources and services.